www.pogodaiklimat.ru

Погода и климат >> Архив погоды >> Оман >> Diba


ПОГОДА в Diba

  • Прогноз погоды в Diba
  • Монитор погоды в Diba
  • Климат города

АРХИВ ПОГОДЫ в Diba

Время (UTC), дата Ветер
(напр.,м/с)
 
Видим.   Явления Облачность Т
(С)
Тd
(С)
f
(%)
Тe
(С)
Тes
(С)
Комфортность P
(гПа)
Po
(гПа)
Тmin
(С)
Tmax
(С)
R
(мм)
R24
(мм)
S
(см)
09 19.09 СВ 4 н/о н/о +32.8 +25.4 65 +47 +47 опасность
перегрева
1008.3 1005.9
12 19.09 СВ 3 н/о н/о +31.8 +26.5 74 +49 +49 опасность
перегрева
1006.9 1004.4
15 19.09 С 2 н/о н/о +30.1 +26.6 82 +47 +47 опасность
перегрева
1006.9 1004.5
18 19.09 В 1 н/о н/о +29.2 +26.6 86 +45 +45 опасность
перегрева
1007.5 1005.0 +33.8
21 19.09 С 2 н/о н/о +28.3 +26.5 90 +44 +44 опасность
перегрева
1006.4 1003.9
00 20.09 ЮЗ 1 н/о н/о +26.9 +25.6 93 +40 +40 очень
душно
1006.2 1003.7
03 20.09 С 1 н/о н/о +28.5 +25.9 86 +43 +43 опасность
перегрева
1008.0 1005.6
06 20.09 СВ 1 н/о н/о +34.6 +23.2 52 +45 +45 опасность
перегрева
1008.8 1006.3 +25.3
09 20.09 СВ 4 н/о н/о +33.9 +26.7 66 +51 +51 опасность
перегрева
1007.5 1005.1
12 20.09 СВ 4 н/о н/о +32.4 +26.9 73 +50 +50 опасность
перегрева
1006.2 1003.8
15 20.09 СВ 2 н/о н/о +31.5 +27.6 80 +51 +51 опасность
перегрева
1006.5 1004.0
18 20.09 СВ 1 н/о н/о +29.4 +26.9 86 +46 +46 опасность
перегрева
1007.9 1005.4 +36.0
21 20.09 ЮЗ 1 н/о н/о +28.1 +26.4 91 +43 +43 опасность
перегрева
1006.8 1004.3
00 21.09 С 1 н/о н/о +27.3 +25.7 91 +40 +40 очень
душно
1007.2 1004.7
03 21.09 Ю 1 н/о н/о +27.9 +26.9 94 +44 +44 опасность
перегрева
1008.7 1006.2
06 21.09 СВ 2 н/о н/о +33.9 +25.4 61 +48 +48 опасность
перегрева
1010.0 1007.6 +25.3
09 21.09 СВ 4 н/о н/о +34.9 +26.2 61 +51 +51 опасность
перегрева
1008.1 1005.7
12 21.09 С 4 н/о н/о +33.7 +27.1 68 +52 +52 опасность
перегрева
1006.7 1004.2
15 21.09 С 3 н/о н/о +31.1 +27.5 81 +50 +50 опасность
перегрева
1007.2 1004.8
18 21.09 штиль 0 н/о н/о +30.1 +26.5 81 +46 +46 опасность
перегрева
1009.0 1006.5 +35.5
21 21.09 штиль 0 н/о н/о +28.2 +25.5 85 +41 +41 опасность
перегрева
1008.1 1005.6
00 22.09 штиль 0 н/о н/о +28.2 +25.5 85 +41 +41 опасность
перегрева
1008.1 1005.6
03 22.09 СВ 1 н/о н/о +27.3 +19.3 62 +33 +33 очень
душно
1008.8 1006.3
06 22.09 В 3 н/о н/о +33.7 +23.9 57 +46 +46 опасность
перегрева
1010.4 1007.9 +25.7
09 22.09 С 4 н/о н/о +36.3 +22.7 46 +46 +46 опасность
перегрева
1008.9 1006.4
12 22.09 СВ 4 н/о н/о +34.6 +24.5 56 +47 +47 опасность
перегрева
1007.5 1005.1
15 22.09 СВ 2 н/о н/о +31.6 +26.1 73 +48 +48 опасность
перегрева
1008.1 1005.7
18 22.09 С 1 н/о н/о +30.7 +26.5 78 +47 +47 опасность
перегрева
1009.6 1007.2 +36.6
21 22.09 СЗ 1 н/о н/о +29.2 +25.8 82 +44 +44 опасность
перегрева
1009.6 1007.1
00 23.09 штиль 0 н/о н/о +28.0 +25.3 85 +41 +41 опасность
перегрева
1009.3 1006.8
03 23.09 С 2 н/о н/о +28.7 +26.7 89 +45 +45 опасность
перегрева
1010.9 1008.4
06 23.09 В 2 н/о н/о +34.7 +25.1 58 +49 +49 опасность
перегрева
1011.6 1009.2 +26.8
09 23.09 С 4 н/о н/о +35.7 +22.0 45 +44 +44 опасность
перегрева
1010.3 1007.9
12 23.09 СВ 4 н/о н/о +35.4 +22.2 46 +44 +44 опасность
перегрева
1008.9 1006.5
15 23.09 С 2 н/о н/о +31.5 +25.3 70 +46 +46 опасность
перегрева
1008.9 1006.5
18 23.09 С 1 н/о н/о +29.9 +25.0 75 +43 +43 опасность
перегрева
1010.0 1007.5 +37.2
21 23.09 ЮЗ 1 н/о н/о +27.7 +22.3 72 +36 +36 очень
душно
1009.1 1006.6
00 24.09 СЗ 1 н/о н/о +27.8 +14.8 45 +36 +36 очень
душно
1008.3 1005.8
03 24.09 ЮЗ 6 н/о н/о +36.8 +7.9 17 +35 +35 очень
жарко
1009.2 1006.7
06 24.09 ЮЗ 7 н/о н/о +39.8 +7.2 14 +37 +37 очень
жарко
1010.2 1007.8 +27.0
09 24.09 ЮЗ 7 н/о н/о +42.6 +7.1 12 +40 +40 очень
жарко
1008.3 1005.9
12 24.09 СВ 3 н/о н/о +32.9 +17.5 40 +55 +55 опасность
перегрева
1007.7 1005.3
15 24.09 СВ 1 н/о н/о +31.8 +27.6 79 +51 +51 опасность
перегрева
1008.0 1005.5
18 24.09 н/о н/о +30.8 +26.7 79 1008.8 1006.4 +43.4
21 24.09 штиль 0 н/о н/о +29.5 +26.5 84 +45 +45 опасность
перегрева
1007.8 1005.4
00 25.09 З 1 н/о н/о +28.2 +26.2 89 +43 +43 опасность
перегрева
1007.0 1004.6
03 25.09 З 1 н/о н/о +27.9 +25.6 87 +41 +41 опасность
перегрева
1008.3 1005.8
06 25.09 ЮЗ 5 н/о н/о +30.9 +26.1 76 +47 +47 опасность
перегрева
1009.6 1007.1 +25.8
09 25.09 СВ 5 н/о н/о +33.7 +26.9 68 +52 +52 опасность
перегрева
1008.0 1005.5
12 25.09 В 3 н/о н/о +32.7 +27.0 72 +51 +51 опасность
перегрева
1006.5 1004.0
15 25.09 СВ 2 н/о н/о +31.1 +26.6 77 +48 +48 опасность
перегрева
1007.0 1004.5
18 25.09 З 2 н/о н/о +31.9 +24.8 66 +45 +45 опасность
перегрева
1007.8 1005.3 +40.9
21 25.09 С 1 н/о н/о +30.8 +26.3 77 +47 +47 опасность
перегрева
1007.5 1005.1
00 26.09 н/о н/о +28.5 +25.3 83 1007.0 1004.5
03 26.09 штиль 0 н/о н/о +29.8 +26.5 83 +46 +46 опасность
перегрева
1008.3 1005.8
06 26.09 В 2 н/о н/о +33.6 +25.1 61 +47 +47 опасность
перегрева
1009.7 1007.2 +27.9

 

Местоположение метеостанции Diba (Оман): широта 25.62 долгота 56.25 высота над уровнем моря 20 м.

В архиве по умолчанию представлена погода в Diba за последнюю неделю. Архивные данные за месяц целиком и за предыдущие месяцы, начиная с января 2011 года, Вы можете получить, выбрав интересующий диапазон дат из раскрывающегося списка и нажав кнопку "Ввод!".


*Определитесь, кто Вы:
робот инопланетянин человек

Внимание! Время в таблицах - всемирное. Для получения местного времени необходимо прибавить поправку, которая в Diba равна 4 ч.

Смотрите также архив погоды в соседних городах и на ближайших метеорологических станциях:

Погода в Ras Al Khaimah Int Airport (ОАЭ) (32 км)
Погода в Fujairah (ОАЭ) (58 км)
Погода в Khasab Airport (Оман) (61 км)
Погода в Khasab (Оман) (66 км)
Погода в Sharjah (ОАЭ) (80 км)
Погода в Dubai (ОАЭ) (101 км)
Погода в Sohar Majis (Оман) (134 км)
Погода в Dubai Al Maktoum Int Airport (ОАЭ) (136 км)
Погода в Abu Musa Island (Иран) (144 км)
Погода в Jask (Иран) (152 км)

Пояснения к столбцам:

Ветер - указаны скорость ветра в м/с - средняя за 10 мин, порывы в срок и между сроками (в фигурных скобках) и направление, откуда дует ветер: С - северный, СВ - северо-восточный, В - восточный, ЮВ - юго-восточный, Ю - южный, ЮЗ - юго-западный, З - западный, СЗ - северо-западный.
Видимость - горизонтальная дальность видимости в метрах или километрах. При видимости от 1 до 10 км при отсутствии осадков обычно наблюдается дымка, при ухудшении видимости до 1 км и менее - туман. В сухую погоду видимость может ухудшаться дымом, пылью или мглою.
Явления - указаны атмосферные явления, наблюдавшиеся в срок или в последний час перед сроком; фигурными скобками обозначены явления, наблюдавшиеся между сроками (за 1-3 часа до срока); квадратными скобками обозначены град или гололедные отложения с указанием их диаметра в мм.
Облачность - указаны через наклонную черту общая и нижняя облачность в баллах и высота нижней границы облаков в метрах; квадратными скобками обозначены формы облаков: Ci - перистые, Cs - перисто-слоистые, Cc - перисто-кучевые, Ac - высококучевые, As - высокослоистые, Sc - слоисто-кучевые, Ns - слоисто-дождевые, Cu - кучевые, Cb - кучево-дождевые. Подробнее классификацию облаков см. в Атласе облаков (PDF).
T - Температура воздуха - температура, измеренная на высоте 2 м над землей.
Td - Температура точки росы - температура, при понижении до которой содержащийся в воздухе водяной пар достигнет насыщения.
f - Относительная влажность воздуха - влажноcть воздуха, измеренная на высоте 2 м над землей.
Te - Эффективная температура - температура, которую ощущает одетый по сезону человек в тени. Характеристика душности погоды. При расчете учитывается влияние влажности воздуха и скорости ветра на теплоощущения человека.
Tes - Эффективная температура на солнце - температура, которую ощущает человек, с поправкой на солнечный нагрев. Характеристика знойности погоды. Зависит от высоты солнца над горизонтом, облачности и скорости ветра. Ночью, в пасмурную погоду, а также при ветре 12 м/с и более поправка равна нулю.
P - Атмосферное давление - приведенное к уровню моря атмосферное давление.
Po - Атмосферное давление - измеренное на уровне метеостанции атмосферное давление.
Tmin - Минимальная температура - минимум температуры воздуха на высоте 2 м над землей.
Tmax - Максимальная температура - максимум температуры воздуха на высоте 2 м над землей.
R - Количество осадков - Количество выпавших осадков за период времени, мм. При наведении курсора мыши на число - период времени, за который выпало указанное количество осадков.
R24 - Количество осадков - Количество выпавших осадков за 24 часа, мм.
S - Снежный покров - Высота снежного покрова, см. При наведении курсора мыши на число - состояние снежного покрова и степень покрытия местности в баллах.